Pagrindinis puslapis
METAR-TAF:

METAR-TAF

Oro uostai :

Mora–Siljan

Mora, Švedija

platuma: 60-57-31N, ilguma: 14-30-40E, Aukštis: 193 m

Dabartinis oras

Ataskaita buvo paskelbta 32 minutes, ne 19:20 UTC
Vėjas 3 kt iš Pietų
Temperatūra 13°C
Drėgmė 72%
Slėgis 1011 hPa
Matomumas 10 km arba daugiau

METAR: ESKM 141920Z AUTO 19003KT 9999 BKN062/// OVC094/// 13/08 Q1011

Laikas: 21:52 (19:52 UTC)


TAF: trūkstamas

Orai ataskaitas ir orų prognozės (METAR, TAF).

turimą stotys yra geltonos ir raudonos taškus žemėlapyje.

Perkelti pele per norėdami pamatyti stoties vardą.

Tada spustelėkite, norėdami matyti oro stebėjimo ir prognozės.

Norėdami pakeisti žemėlapį: spustelėkite ant žalios mygtukų su juodo kryžiaus žemyn,; žalią mygtuką su brūkšneliu, jei norite nutolinti; arba žalių rodyklių gretimoms žemėlapius.


METAR-TAF: